Probability
6 10 16 23 26 29 42 55 68 65 55 45 23 16 19 6 3 10 6 0 0 0 0 0 0 0 0 0 0 0 0 0 0 0 0 0 0 0 0 0 0 0 0
0 3 6 13 23 26 32 39 61 61 52 42 32 23 16 10 6 6 6 3 0 0 0 0 0 0 0 0 0 0 0 0 0 0 0 0 0 0 0 0 0 0 0
0 0 3 10 13 23 32 39 42 52 55 48 29 16 16 13 6 6 3 0 0 0 0 0 0 0 0 0 0 0 0 0 0 0 0 0 0 0 0 0 0 0 0
0 0 0 3 10 19 26 29 35 42 52 52 39 19 16 3 3 3 3 0 0 0 0 0 0 0 0 0 0 0 0 0 0 0 0 0 0 0 0 0 0 0 0
0 0 0 3 10 13 23 29 32 35 35 42 26 29 16 3 3 3 3 3 0 0 0 0 0 0 0 0 0 0 0 0 0 0 0 0 0 0 0 0 0 0 0
0 0 0 3 3 10 10 16 19 23 26 29 26 23 19 10 6 6 6 3 0 0 0 0 0 0 0 0 0 0 0 0 0 0 0 0 0 0 0 0 0 0 0
0 0 0 0 0 0 6 6 13 13 16 16 19 26 19 13 13 10 6 6 3 0 0 0 0 0 0 0 0 0 0 0 0 0 0 0 0 0 0 0 0 0 0
0 0 0 0 0 0 0 0 3 3 6 10 16 16 16 10 10 10 6 6 3 3 3 0 0 0 0 0 0 0 0 0 0 0 0 0 0 0 0 0 0 0 0
0 0 0 0 0 0 0 0 0 0 3 3 3 3 10 6 10 10 6 6 3 0 0 0 0 0 0 0 0 0 0 0 0 0 0 0 0 0 0 0 0 0 0
0 0 0 0 0 0 0 0 0 0 0 3 3 3 3 3 3 3 6 0 0 0 0 0 0 0 0 0 0 0 0 0 0 0 0 0 0 0 0 0 0 0 0
0 0 0 0 0 0 0 0 0 0 0 0 0 0 0 0 3 3 3 0 0 0 0 0 0 0 0 0 0 0 0 0 0 0 0 0 0 0 0 0 0 0 0
0 0 0 0 0 0 0 0 0 0 0 0 0 0 0 0 0 0 0 0 0 0 0 0 0 0 0 0 0 0 0 0 0 0 0 0 0 0 0 0 0 0 0
0 0 0 0 0 0 0 0 0 0 0 0 0 0 0 0 0 0 0 0 0 0 0 0 0 0 0 0 0 0 0 0 0 0 0 0 0 0 0 0 0 0 0
0 0 0 0 0 0 0 0 0 0 0 0 0 0 0 0 0 0 0 0 0 0 0 0 0 0 0 0 0 0 0 0 0 0 0 0 0 0 0 0 0 0 0
0 0 0 0 0 0 0 0 0 0 0 0 0 0 0 0 0 0 0 0 0 0 0 0 0 0 0 0 0 0 0 0 0 0 0 0 0 0 0 0 0 0 0
0 0 0 0 0 0 0 0 0 0 0 0 0 0 0 0 0 0 0 0 0 0 0 0 0 0 0 0 0 0 0 0 0 0 0 0 0 0 0 0 0 0 0
0 0 0 0 0 0 0 0 0 0 0 0 0 0 0 0 0 0 0 0 0 0 0 0 0 0 0 0 0 0 0 0 0 0 0 0 0 0 0 0 0 0 0
0 0 0 0 0 0 0 0 0 0 0 0 0 0 0 0 0 0 0 0 0 0 0 0 0 0 0 0 0 0 0 0 0 0 0 0 0 0 0 0 0 0 0
0 0 0 0 0 0 0 0 0 0 0 0 0 0 0 0 0 0 0 0 0 0 0 0 0 0 0 0 0 0 0 0 0 0 0 0 0 0 0 0 0 0 0
0 0 0 0 0 0 0 0 0 0 0 0 0 0 0 0 0 0 0 0 0 0 0 0 0 0 0 0 0 0 0 0 0 0 0 0 0 0 0 0 0 0 0
0 0 0 0 0 0 0 0 0 0 0 0 0 0 0 0 0 0 0 0 0 0 0 0 0 0 0 0 0 0 0 0 0 0 0 0 0 0 0 0 0 0 0
0 0 0 0 0 0 0 0 0 0 0 0 0 0 0 0 0 0 0 0 0 0 0 0 0 0 0 0 0 0 0 0 0 0 0 0 0 0 0 0 0 0 0
0 0 0 0 0 0 0 0 0 0 0 0 0 0 0 0 0 0 0 0 0 0 0 0 0 0 0 0 0 0 0 0 0 0 0 0 0 0 0 0 0 0 0
0 0 0 0 0 0 0 0 0 0 0 0 0 0 0 0 0 0 0 0 0 0 0 0 0 0 0 0 0 0 0 0 0 0 0 0 0 0 0 0 0 0 0
0 0 0 0 0 0 0 0 0 0 0 0 0 0 0 0 0 0 0 0 0 0 0 0 0 0 0 0 0 0 0 0 0 0 0 0 0 0 0 0 0 0 0
0 0 0 0 0 0 0 0 0 0 0 0 0 0 0 0 0 0 0 0 0 0 0 0 0 0 0 0 0 0 0 0 0 0 0 0 0 0 0 0 0 0 0
Height
5759 5765 5772 5778 5785 5790 5796 5801 5805 5810 5814 5817 5821 5824 5827 5830 5832 5834 5836 5837 5839 5840 5842 5843 5844 5844 5845 5845 5845 5845 5844 5844 5843 5842 5841 5840 5838 5836 5834 5831 5829 5826 5824
5751 5757 5765 5771 5777 5783 5788 5793 5798 5803 5807 5811 5814 5817 5820 5822 5825 5826 5828 5830 5832 5833 5835 5836 5836 5837 5838 5838 5837 5837 5837 5836 5835 5834 5833 5833 5832 5829 5827 5824 5822 5819 5816
5744 5750 5757 5763 5769 5775 5781 5786 5790 5795 5799 5803 5806 5809 5812 5815 5817 5819 5821 5822 5824 5825 5827 5828 5828 5829 5830 5830 5830 5829 5829 5828 5827 5826 5825 5824 5823 5822 5820 5817 5814 5811 5808
5736 5742 5748 5755 5761 5767 5773 5777 5782 5786 5791 5794 5798 5801 5804 5807 5809 5811 5813 5814 5815 5817 5818 5819 5820 5821 5821 5821 5821 5821 5820 5820 5819 5817 5816 5815 5813 5812 5811 5809 5806 5803 5800
5729 5734 5741 5747 5753 5759 5764 5769 5773 5778 5782 5786 5789 5793 5796 5798 5800 5802 5804 5805 5807 5808 5809 5810 5811 5812 5812 5812 5812 5811 5811 5810 5810 5809 5807 5806 5804 5802 5800 5799 5797 5795 5792
5720 5726 5732 5738 5744 5749 5754 5759 5764 5768 5772 5776 5780 5783 5786 5788 5791 5793 5795 5796 5798 5799 5800 5800 5801 5802 5802 5802 5802 5802 5801 5801 5800 5799 5798 5796 5795 5793 5791 5789 5787 5785 5783
5712 5718 5723 5729 5734 5740 5745 5749 5754 5758 5762 5766 5770 5773 5776 5778 5781 5783 5785 5786 5788 5789 5790 5791 5791 5792 5792 5792 5792 5792 5791 5790 5790 5788 5787 5786 5785 5783 5781 5779 5777 5775 5773
5704 5710 5715 5720 5725 5730 5735 5739 5744 5748 5752 5756 5760 5763 5766 5768 5771 5773 5774 5776 5777 5778 5779 5780 5780 5781 5781 5781 5781 5781 5780 5780 5779 5778 5777 5776 5774 5773 5771 5769 5767 5765 5763
5696 5701 5706 5711 5716 5721 5725 5729 5734 5738 5742 5746 5749 5752 5755 5758 5760 5762 5763 5765 5766 5767 5768 5769 5770 5770 5770 5770 5770 5770 5769 5769 5768 5767 5766 5765 5764 5762 5760 5758 5757 5755 5753
5689 5693 5698 5702 5707 5711 5715 5719 5723 5728 5732 5735 5739 5742 5744 5747 5749 5750 5752 5753 5755 5756 5757 5757 5758 5758 5758 5758 5758 5758 5758 5757 5757 5756 5755 5754 5753 5751 5750 5748 5746 5744 5743
5681 5686 5690 5694 5698 5702 5706 5710 5714 5718 5721 5725 5728 5731 5733 5735 5737 5739 5740 5742 5743 5744 5744 5745 5746 5746 5746 5746 5746 5746 5746 5745 5745 5744 5743 5742 5741 5740 5739 5737 5736 5734 5732
5674 5678 5682 5686 5690 5693 5697 5701 5704 5708 5711 5714 5717 5720 5722 5724 5726 5727 5729 5730 5731 5732 5733 5733 5734 5734 5735 5734 5734 5734 5734 5734 5733 5733 5732 5731 5730 5729 5727 5726 5725 5723 5722
5666 5670 5674 5678 5682 5685 5688 5692 5695 5699 5701 5704 5707 5709 5711 5713 5714 5716 5717 5718 5720 5720 5721 5721 5722 5722 5723 5723 5722 5722 5722 5722 5722 5721 5720 5719 5718 5717 5716 5715 5714 5713 5711
5659 5663 5667 5670 5674 5677 5680 5683 5686 5689 5692 5694 5696 5699 5700 5702 5703 5705 5706 5707 5708 5709 5709 5710 5710 5710 5711 5711 5710 5710 5710 5710 5710 5709 5708 5708 5707 5706 5705 5704 5703 5702 5701
5652 5656 5659 5662 5666 5669 5672 5674 5677 5680 5682 5685 5687 5689 5690 5692 5693 5694 5695 5696 5696 5697 5698 5698 5698 5699 5699 5699 5698 5698 5698 5698 5698 5697 5697 5696 5696 5695 5694 5693 5693 5692 5691
5645 5648 5652 5655 5658 5661 5664 5666 5669 5671 5673 5675 5677 5679 5680 5681 5682 5683 5684 5684 5685 5686 5686 5687 5687 5687 5687 5687 5687 5687 5687 5686 5686 5686 5685 5685 5684 5684 5683 5683 5682 5682 5681
5638 5641 5645 5648 5651 5653 5656 5658 5661 5663 5665 5666 5668 5669 5670 5671 5672 5673 5673 5674 5674 5675 5675 5675 5675 5675 5675 5675 5675 5675 5675 5675 5675 5675 5674 5674 5674 5673 5673 5673 5672 5671 5671
5632 5635 5638 5641 5643 5646 5648 5650 5652 5654 5656 5657 5659 5660 5661 5662 5662 5663 5663 5663 5664 5664 5664 5664 5664 5664 5664 5664 5664 5664 5664 5664 5664 5664 5664 5664 5663 5663 5663 5662 5662 5662 5661
5625 5628 5631 5633 5636 5638 5640 5642 5644 5646 5647 5648 5650 5651 5651 5652 5652 5653 5653 5653 5653 5653 5653 5653 5653 5653 5653 5653 5653 5653 5653 5653 5653 5653 5653 5653 5653 5653 5653 5652 5652 5652 5651
5618 5620 5623 5626 5628 5630 5632 5634 5635 5637 5638 5639 5641 5641 5642 5642 5643 5643 5643 5643 5643 5643 5643 5642 5642 5642 5642 5642 5642 5642 5642 5642 5643 5643 5643 5643 5643 5643 5642 5642 5642 5642 5641
5611 5613 5615 5618 5620 5622 5624 5625 5627 5628 5630 5631 5631 5632 5632 5633 5633 5633 5633 5633 5633 5633 5632 5632 5632 5632 5631 5631 5631 5632 5632 5632 5632 5633 5633 5633 5633 5633 5633 5633 5632 5632 5632
5604 5606 5608 5610 5612 5613 5615 5617 5618 5620 5621 5622 5622 5623 5623 5623 5623 5624 5624 5623 5623 5623 5623 5622 5622 5622 5621 5621 5621 5622 5622 5622 5622 5623 5623 5623 5623 5623 5623 5623 5623 5623 5622
5596 5598 5600 5602 5604 5605 5607 5608 5610 5611 5612 5613 5613 5614 5614 5614 5614 5614 5614 5614 5614 5614 5613 5613 5613 5612 5612 5612 5612 5612 5612 5612 5613 5613 5613 5614 5614 5614 5614 5614 5614 5613 5613
5589 5591 5592 5594 5596 5597 5599 5600 5601 5602 5603 5604 5604 5605 5605 5605 5605 5605 5605 5605 5605 5604 5604 5603 5603 5603 5603 5602 5602 5603 5603 5603 5603 5604 5604 5604 5604 5604 5604 5604 5604 5604 5604
5582 5583 5585 5586 5588 5589 5590 5592 5593 5593 5594 5595 5595 5596 5596 5596 5596 5596 5596 5596 5596 5595 5595 5594 5594 5594 5594 5594 5594 5594 5594 5594 5594 5595 5595 5595 5595 5595 5595 5595 5595 5594 5594
5575 5576 5577 5578 5580 5581 5582 5583 5584 5585 5586 5586 5587 5587 5587 5587 5588 5587 5587 5587 5587 5586 5586 5585 5585 5585 5585 5585 5585 5585 5585 5585 5586 5586 5586 5586 5586 5586 5586 5586 5585 5585 5584
Wind_Speed
55 55 55 54 53 52 50 49 47 46 44 43 41 40 39 39 38 38 38 38 37 37 37 36 36 35 34 34 34 34 33 33 34 34 34 35 35 36 36 37 38 38 39
55 56 55 55 54 53 52 51 50 48 47 45 44 43 42 42 41 41 40 40 39 39 39 39 38 38 38 38 38 37 37 37 37 38 38 37 37 37 37 38 39 40 41
54 55 54 54 54 54 53 52 51 50 49 48 47 46 45 44 43 42 42 42 42 42 41 41 41 41 41 41 41 41 40 40 40 40 41 41 40 39 38 39 40 41 41
52 54 54 54 53 53 53 53 52 52 51 49 48 47 46 45 44 44 44 43 43 44 43 43 43 44 44 43 44 44 44 43 43 43 43 43 43 43 42 41 41 41 41
51 52 53 53 53 53 53 53 52 52 51 51 49 49 49 48 47 46 46 45 45 45 45 45 45 45 45 45 45 46 46 46 45 45 44 44 44 45 45 44 43 43 42
50 50 50 51 52 53 53 53 53 53 52 52 52 51 51 50 50 49 49 48 47 47 48 48 47 47 47 47 48 48 48 47 47 47 47 46 46 46 46 46 45 44 43
48 49 49 49 50 51 52 53 54 53 53 52 52 52 51 52 51 50 50 50 50 50 50 51 50 50 50 50 50 50 50 49 49 48 48 47 47 47 47 46 45 45 44
45 46 46 47 49 49 51 52 53 54 54 53 52 52 52 53 53 53 52 52 53 52 52 52 53 53 52 52 52 51 51 51 50 49 49 48 48 47 47 46 46 45 44
42 43 44 44 46 47 48 49 52 53 54 53 53 52 52 53 53 53 53 53 53 52 52 52 53 54 54 53 53 52 52 51 50 50 50 49 47 47 46 46 46 45 43
39 40 41 42 43 44 46 47 48 51 52 53 53 53 53 53 54 54 54 53 53 53 53 53 53 53 52 51 51 51 51 51 50 49 48 47 47 47 46 46 45 43 43
37 37 38 39 39 41 42 43 45 47 48 50 51 52 53 53 52 53 53 53 53 52 51 51 51 51 51 52 52 51 50 49 48 48 47 47 47 46 45 44 44 43 43
34 34 35 36 37 38 39 41 42 44 46 47 49 49 49 51 51 51 51 51 51 51 51 50 51 51 51 51 50 49 48 48 48 48 47 47 46 46 45 44 43 43 42
33 32 32 34 35 36 37 39 41 42 43 44 46 47 47 48 48 49 49 49 50 50 50 50 50 51 51 51 50 50 49 49 48 47 46 45 45 44 43 43 43 42 41
32 32 32 32 33 34 35 36 38 40 41 43 43 44 45 46 46 46 47 48 48 49 49 49 49 49 49 49 49 49 48 48 47 46 45 44 43 43 42 42 41 40 39
31 31 32 32 32 32 33 34 35 36 37 39 40 41 42 43 44 46 46 46 47 47 47 47 47 48 47 47 47 46 46 46 45 45 44 43 42 41 41 40 39 39 38
30 30 30 30 30 31 31 32 33 34 35 36 37 39 40 40 41 42 42 43 44 44 44 44 44 45 45 45 44 44 44 44 43 43 42 41 40 40 39 39 38 38 37
29 29 29 29 29 30 30 31 32 33 33 34 35 36 38 39 39 39 40 41 42 42 43 43 43 43 43 43 43 43 42 41 40 40 40 39 39 38 38 38 37 37 36
27 28 28 28 29 29 30 30 31 31 32 33 34 34 35 36 37 38 38 39 39 40 41 41 41 41 41 42 41 41 41 41 40 39 39 38 38 38 38 37 36 35 35
27 28 28 28 29 29 29 29 30 30 31 32 33 34 35 35 36 37 37 38 38 39 39 39 40 40 40 40 40 39 39 39 39 38 38 37 37 37 36 35 35 34 34
28 28 28 29 29 29 29 30 30 31 32 32 33 34 34 35 36 36 37 37 37 37 38 38 38 39 39 39 39 38 38 38 37 37 36 36 36 36 35 34 34 33 33
27 28 28 29 29 29 30 30 30 31 31 32 32 33 33 34 35 35 35 36 36 36 36 37 37 37 37 37 37 36 36 36 36 35 35 35 35 34 34 33 32 32 32
26 27 28 29 29 30 30 30 30 31 31 31 32 32 33 33 34 34 34 34 35 35 35 35 35 34 34 34 35 35 35 35 35 34 34 33 33 33 32 31 31 31 31
26 27 28 28 29 29 29 30 30 31 31 31 31 32 32 32 32 33 33 33 33 33 33 33 33 33 33 33 33 33 33 33 33 33 33 33 32 32 31 30 30 31 31
25 26 27 27 28 28 29 30 30 31 31 31 31 32 32 32 32 32 31 32 32 32 32 32 32 32 32 32 32 32 32 32 32 32 32 32 31 31 31 31 31 31 31
25 26 26 27 27 28 28 29 30 30 31 31 31 31 31 31 31 31 31 31 31 31 31 30 30 30 30 29 29 30 30 30 30 30 31 31 31 31 31 31 31 31 32
25 25 26 26 27 27 28 29 29 29 30 30 30 30 30 30 30 30 30 30 30 30 29 29 29 28 29 29 29 29 29 29 30 30 31 31 31 31 31 31 32 32 33
Wind_Direction
225 226 227 229 230 231 233 236 237 239 241 243 246 248 251 253 254 255 256 257 259 261 263 265 268 270 272 275 277 279 282 284 287 289 291 293 295 296 297 298 300 301 303
226 228 229 230 231 232 233 235 237 240 242 244 246 248 250 252 254 256 256 258 260 263 265 267 268 270 273 275 277 279 281 284 286 288 290 290 292 294 295 297 298 299 301
228 229 230 231 232 233 235 236 238 240 242 244 246 248 250 253 255 256 258 259 260 263 265 266 269 271 273 275 277 279 281 283 286 288 290 290 291 291 293 294 296 297 299
230 231 231 232 234 235 236 238 240 241 242 244 246 248 250 252 254 257 258 259 261 263 264 265 268 271 273 275 276 278 281 283 285 287 288 289 291 292 292 293 294 296 297
232 233 234 234 235 236 237 239 240 242 243 244 246 247 249 252 253 256 257 260 262 264 266 267 268 270 272 275 277 279 281 283 285 286 287 289 290 291 292 293 294 295 295
233 234 235 235 236 237 238 239 241 242 244 245 246 248 250 252 254 256 258 261 263 264 266 267 269 270 272 274 277 279 280 282 283 285 286 287 288 289 290 291 293 293 295
234 235 237 238 237 238 239 240 241 242 244 246 248 249 251 253 255 257 259 261 264 265 266 267 269 270 272 273 276 277 278 279 282 284 285 286 287 287 288 290 291 292 293
235 237 239 240 240 240 240 241 241 242 244 246 248 250 252 254 255 257 260 262 264 265 265 267 269 271 272 274 275 277 277 279 281 283 283 284 285 285 287 288 290 291 292
236 237 239 241 241 241 242 243 243 244 245 247 248 250 253 255 256 258 260 262 264 264 265 268 270 271 272 274 275 276 278 279 280 281 282 282 282 284 286 288 289 290 290
238 239 240 241 242 242 242 243 244 245 247 248 250 251 253 254 256 259 261 262 264 266 267 269 271 272 273 274 275 276 276 278 278 279 279 280 281 283 285 286 287 288 288
238 239 239 241 242 243 243 243 244 245 247 248 251 253 254 256 257 258 260 263 265 266 267 269 270 271 273 274 274 275 276 276 277 278 279 280 282 283 283 284 285 286 287
238 240 241 241 242 243 243 243 244 245 247 249 251 253 255 257 258 259 262 263 265 266 268 270 271 272 273 274 274 275 275 276 277 278 279 280 281 281 281 282 283 284 286
237 240 240 240 241 243 244 244 245 245 247 249 251 253 255 257 259 261 262 264 267 268 269 270 272 272 273 274 275 276 276 277 278 278 279 280 280 280 280 281 281 282 284
237 239 241 242 242 244 245 246 247 247 249 250 252 254 256 258 260 262 263 265 267 269 270 270 272 273 273 274 275 275 276 277 277 278 278 279 279 279 279 279 280 281 283
237 238 240 242 243 244 246 247 248 249 250 251 254 256 257 260 261 263 264 266 267 268 269 270 271 272 273 274 275 276 276 276 276 276 277 277 276 277 277 278 279 280 281
237 238 239 241 242 244 246 247 249 250 252 253 255 257 258 260 262 264 265 266 267 268 269 270 271 272 272 273 274 274 275 275 275 275 274 274 274 276 277 277 278 280 280
237 238 239 241 243 245 247 248 250 252 254 256 257 258 260 261 263 265 266 267 268 268 269 269 270 271 272 272 272 272 273 273 273 273 273 272 273 274 275 276 277 279 280
238 239 241 242 244 246 248 249 251 253 255 257 259 260 261 263 264 266 267 268 269 270 270 270 271 271 271 272 272 273 273 272 271 272 272 273 273 274 275 276 277 278 279
241 241 242 244 246 247 249 250 252 254 256 258 260 261 263 265 267 268 268 270 271 271 271 271 271 271 271 272 272 272 272 271 271 271 271 272 273 273 274 275 276 277 278
244 244 245 246 247 249 250 252 254 256 257 259 261 263 265 266 267 269 269 270 271 272 272 273 273 272 272 272 272 271 271 270 271 271 271 272 272 273 274 274 275 276 277
246 246 246 247 248 250 252 254 255 257 259 261 263 265 267 268 268 269 270 271 271 272 273 273 273 272 272 272 271 270 270 270 270 270 271 271 272 273 272 273 273 275 276
247 247 247 248 250 252 253 254 256 257 260 262 265 266 268 269 269 269 271 272 272 272 272 273 273 273 272 271 270 269 269 269 269 269 270 270 271 271 271 272 273 274 276
250 250 250 251 251 252 254 255 256 258 260 263 265 267 268 269 270 270 271 272 272 272 272 273 273 273 273 272 270 269 269 268 268 269 269 270 270 270 270 271 273 275 276
252 252 252 252 252 254 255 256 258 259 261 263 265 266 268 268 269 269 270 271 272 273 274 273 273 273 273 272 271 270 269 268 268 269 269 269 269 269 270 271 273 275 276
252 253 253 253 254 255 256 258 260 261 262 263 265 266 267 268 269 270 272 273 273 274 274 273 273 272 272 273 272 271 270 269 268 268 268 268 268 269 271 272 273 274 276
253 254 254 254 254 256 257 258 259 261 262 264 265 266 267 268 270 271 272 273 273 273 273 273 273 273 273 273 274 273 271 269 268 268 268 268 269 270 271 273 274 275 277